Regional Weather Roundup
Issued by NWS State College, PA

Home | Current Version | Previous Version | Graphics & Text | Print | Product List | Glossary On
Versions: 1 2 3 4 5 6 7 8 9 10 11 12 13 14 15 16 17 18 19 20 21 22 23 24 25 26 27 28 29 30 31 32 33 34 35 36 37 38 39 40 41 42 43 44 45 46 47 48 49 50
000
ASUS41 KCTP 260910
RWRCTP

REGIONAL WEATHER ROUNDUP
NATIONAL WEATHER SERVICE STATE COLLEGE PA
500 AM EDT THU MAY 26 2016

Note: "fair" indicates few or no clouds below 12,000 feet with no
significant weather and/or obstructions to visibility.

* = STATION THAT DOES NOT REPORT PRECIPITATION /E.G. RAIN...SNOW...ETC/
    THUNDER OR FOG.

PAZ002>004-007>009-013>016-020>023-029>032-261000-
WESTERN PENNSYLVANIA

CITY           SKY/WX    TMP DP  RH WIND       PRES   REMARKS
ERIE           CLOUDY    70  56  61 S10       30.04F
MEADVILLE      CLOUDY    66  54  65 S5        30.08S
FRANKLIN*      CLOUDY    61  54  77 CALM      30.12S
NEW CASTLE     CLOUDY    66  58  75 CALM      30.09S
BEAVER COUNTY  NOT AVBL
BUTLER*        CLOUDY   N/A N/A N/A CALM      30.13R
PITTSBURGH INT CLOUDY    67  56  67 S6        30.10R
PITTSBURGH     MOCLDY    67  54  63 S7        30.10R HAZE
INDIANA*       MOCLDY    63  57  82 CALM      30.15S
LATROBE        PTCLDY    63  59  88 CALM      30.11F
WASHINGTON CO* CLOUDY    61  55  82 CALM      30.12R
$$

PAZ004>006-010>012-017>019-024>028-033>037-041-042-045-046-049>053-261000-
CENTRAL PENNSYLVANIA

CITY           SKY/WX    TMP DP  RH WIND       PRES   REMARKS
BRADFORD       CLOUDY    54  49  83 CALM      30.14S
DUBOIS         CLOUDY    62  49  62 CALM      30.13S
CLEARFIELD     CLOUDY    57  51  80 N5        30.14S
JOHNSTOWN      CLOUDY    65  47  52 S5        30.15S
ALTOONA        CLOUDY    62  53  72 W3        30.14S
STATE COLLEGE  CLOUDY    62  52  69 CALM      30.13S
WILLIAMSPORT   CLOUDY    57  52  83 NW3       30.11R
SELINSGROVE    CLOUDY    55  52  89 CALM      30.12R
FT INDIANTOWN  CLOUDY    55  55 100 NE2       30.11R
CAPITAL CITY   CLEAR     60  54  80 W3        30.11R
HARRISBURG     MOCLDY    60  54  80 CALM      30.10R
YORK           PTCLDY    53  51  93 CALM      30.10F
$$

PAZ038>040-043-044-047-048-054-055-060>062-067>071-261000-
EASTERN PENNSYLVANIA

CITY           SKY/WX    TMP DP  RH WIND       PRES   REMARKS
SCRANTON       CLEAR     57  51  80 SE3       30.11S
MOUNT POCONO   CLEAR     52  48  86 NW5       30.14S
ALLENTOWN      CLEAR     59  53  80 W3        30.10S
QUAKERTOWN*    SUNNY     55  54  94 CALM      30.12R
READING        PTCLDY    60  53  77 CALM      30.10R
LANCASTER      CLOUDY    57  53  86 CALM      30.11R
COATESVILLE    MOSUNNY   63  52  67 CALM      30.13S
POTTSTOWN      CLOUDY    56  53  90 CALM      30.12S
BLUE BELL      CLEAR     55  54  94 CALM      30.10S
DOYLESTOWN     PTCLDY    62  50  64 S3        30.10R
WILLOW GROVE   NOT AVBL
NORTH PHILA    PTCLDY    65  55  70 W3        30.11S
PHILADELPHIA   MOCLDY    64  56  75 W6        30.11S
$$




USA.gov is the U.S. government's official web portal to all federal, state and local government web resources and services.